User: anonymous   Login
Location: Arrakis Observatory
(44.1122°N, 95.7153°W)
Time: 11:05:46
(UTC-05:00)
Language:

Iridium 35 - Orbit

View from above orbital plane
View from above orbital plane
View from above satellite
View from above satellite

Ground track
Ground track

The orbit data is extracted from the following two-line orbital elements,

1 24966U 97056B   17179.78643634 +.00000119 +00000-0 +35473-4 0  9997
2 24966 086.3961 313.8392 0002267 094.2083 265.9372 14.34215062033912
Epoch (UTC): 28 June 2017 18:52:28
Eccentricity: 0.0002267
inclination: 86.3961°
perigee height: 776 km
apogee height: 779 km
right ascension of ascending node: 313.8392°
argument of perigee: 94.2083°
revolutions per day: 14.34215062
mean anomaly at epoch: 265.9372°
orbit number at epoch: 3391

The dashed part of the orbit path shows where the satellite is in the earth's shadow,  

DLR